This demonstration page uses our WeatherBlox Daily Observations layout. Learn more.

38.89511, -77.03637

Hourly Observations for April 21, 2015

Temp ( °F °C ) Dew Point ( °F °C ) Humidity (%) Winds ( mph kmh ) Pressure ( in mb ) Visibility ( mi km ) Precip ( " mm )
12:52 am 00:52 Cloudy 67 19.4 58 14.4 73 73 NW 8 13 29.58 1002 10 16.0934 0 0
12:56 am 00:56 Cloudy with Thunderstorms 66 19 57 14 73 73 NW 10 17 29.59 1002 10 16.0934 0 0
1:18 am 01:18 Cloudy with Light Thunderstorms 66 19 54 12 64 64 NNW 10 17 29.59 1002 7 11.26538 0 0
1:52 am 01:52 Cloudy with Thunderstorms 62 16.7 56 13.3 80 80 N 5 7 29.6 1003 10 16.0934 0.15 3.81
2:52 am 02:52 Cloudy 62 16.7 57 13.9 84 84 WSW 3 6 29.62 1003 10 16.0934 0 0.0254
3:52 am 03:52 Mostly Cloudy 63 17.2 55 12.8 76 76 NW 13 20 29.64 1004 10 16.0934 0 0.0254
4:52 am 04:52 Cloudy with Light Rain 60 15.6 46 7.8 60 60 NW 18 30 29.67 1005 10 16.0934 0 0.0254
5:52 am 05:52 Cloudy 60 15.6 41 5 50 50 WNW 20 31 29.71 1006 10 16.0934 0 0.0254
6:52 am 06:52 Mostly Cloudy 58 14.4 38 3.3 48 48 NW 14 22 29.75 1007 10 16.0934 0 0
7:52 am 07:52 Mostly Sunny 59 15 38 3.3 46 46 WNW 12 19 29.77 1008 10 16.0934 0 0
8:52 am 08:52 Mostly Sunny 61 16.1 36 2.2 39 39 W 17 28 29.77 1008 10 16.0934 0.01 0.254
9:52 am 09:52 Mostly Sunny 62 16.7 32 0 32 32 WNW 25 41 29.78 1009 10 16.0934 0 0
10:52 am 10:52 Mostly Sunny 64 17.8 35 1.7 34 34 NW 20 31 29.8 1009 10 16.0934 0 0
11:52 am 11:52 Mostly Sunny 65 18.3 35 1.7 33 33 WNW 16 26 29.79 1009 10 16.0934 0 0
12:52 pm 12:52 Mostly Sunny 66 18.9 33 0.6 29 29 WNW 10 17 29.78 1009 10 16.0934 0 0
1:52 pm 13:52 Mostly Sunny 67 19.4 33 0.6 28 28 VRB 6 9 29.76 1008 10 16.0934 0 0
2:52 pm 14:52 Mostly Sunny 68 20 35 1.7 30 30 VRB 5 7 29.74 1007 10 16.0934 0 0
3:52 pm 15:52 Partly Cloudy 69 20.6 31 -0.6 24 24 WSW 16 26 29.73 1007 10 16.0934 0 0
4:52 pm 16:52 Mostly Cloudy 70 21.1 30 -1.1 23 23 W 12 19 29.73 1007 10 16.0934 0 0
5:52 pm 17:52 Partly Cloudy 69 20.6 30 -1.1 23 23 WSW 14 22 29.74 1007 10 16.0934 0 0
6:52 pm 18:52 Mostly Cloudy 68 20 28 -2.2 22 22 W 10 17 29.75 1008 10 16.0934 0 0
7:52 pm 19:52 Mostly Cloudy 67 19.4 30 -1.1 25 25 NNW 13 20 29.78 1008 10 16.0934 0 0
8:52 pm 20:52 Mostly Cloudy 65 18.3 29 -1.7 26 26 NW 6 9 29.8 1009 10 16.0934 0 0
9:52 pm 21:52 Mostly Clear 62 16.7 32 0 32 32 WSW 3 6 29.81 1009 10 16.0934 0 0
10:52 pm 22:52 Clear 58 14.4 35 1.7 42 42 SSW 6 9 29.81 1009 10 16.0934 0 0
11:52 pm 23:52 Clear 58 14.4 37 2.8 46 46 SSW 3 6 29.82 1010 10 16.0934 0 0

Powered by AerisWeather